Location: Beacon Field Observatory
(38.7700°N, 77.0829°W)
Time: 17:45:24
(UTC-05:00)

UKube-1 - Pass Details

Date: 15 December 2019
Orbit: 614 x 618 km, 98.5° (Epoch: 21 January)

Event Time Altitude Azimuth Distance (km) Brightness Sun altitude
Rises 04:06:42 0° 142° (SE) 2,869 ? -36.6°
Reaches altitude 10° 04:09:03 10° 132° (SE) 1,969 ? -36.1°
Enters shadow 04:09:44 14° 127° (SE) 1,728 ? -36.0°
